This demonstration page uses our WeatherBlox Daily Observations layout. Learn more.

Left ArrowRight Arrow

Hourly Observations for October 9, 2016

Temp ( °F °C ) Dew Point ( °F °C ) Humidity (%) Winds ( mph kmh ) Pressure ( in mb ) Visibility ( mi km ) Precip ( " mm )
12:53 am 00:53 Clear 40 4.4 39 3.9 97 97 ENE 5 7 29.86 1011 10 16 0.00 0.00
1:53 am 01:53 Clear 39 3.9 38 3.3 96 96 Calm 29.83 1010 10 16 0.00 0.00
2:53 am 02:53 Clear 40 4.4 39 3.9 97 97 Calm 29.80 1009 10 16 0.00 0.00
3:53 am 03:53 Clear 43 6.1 40 4.4 89 89 WNW 3 6 29.77 1008 10 16 0.00 0.00
4:53 am 04:53 Mostly Clear 56 13.3 45 7.2 67 67 SW 15 24 29.72 1006 10 16 0.00 0.00
5:53 am 05:53 Clear 58 14.4 42 5.6 56 56 WSW 18 30 29.71 1006 10 16 0.00 0.00
6:53 am 06:53 Clear 56 13.3 43 6.1 62 62 SW 23 37 29.71 1006 10 16 0.00 0.00
7:53 am 07:53 Mostly Sunny 53 11.7 43 6.1 69 69 SW 18 30 29.71 1006 10 16 0.00 0.00
8:53 am 08:53 Sunny 53 11.7 43 6.1 69 69 WSW 8 13 29.72 1006 10 16 0.00 0.00
9:53 am 09:53 Sunny 59 15 42 5.6 54 54 SW 21 33 29.71 1006 10 16 0.00 0.00
10:53 am 10:53 Sunny 60 15.6 44 6.7 56 56 SW 23 37 29.71 1006 10 16 0.00 0.00
11:53 am 11:53 Sunny 62 16.7 45 7.2 54 54 WNW 22 35 29.75 1008 10 16 0.00 0.00
12:02 pm 12:02 Sunny 52 11 43 6 72 72 NW 23 37 29.74 1007 10 16 0.00 0.00
12:53 pm 12:53 Sunny 48 8.9 41 5 77 77 NNW 18 30 29.84 1010 10 16 0.00 0.00
1:53 pm 13:53 Mostly Sunny 51 10.6 41 5 69 69 NNW 20 31 29.89 1012 10 16 0.00 0.00
2:13 pm 14:13 Mostly Cloudy 46 7.8 38 3.3 73 73 NW 17 28 29.91 1013 10 16 0.00 0.00
2:53 pm 14:53 Mostly Cloudy 47 8.3 38 3.3 71 71 NNW 12 19 29.93 1014 10 16 0.00 0.00
3:03 pm 15:03 Cloudy 46 8 37 3 71 71 NW 12 19 29.91 1013 10 16 0.00 0.00
3:10 pm 15:10 Cloudy 46 7.8 38 3.3 73 73 NW 13 20 29.94 1014 10 16 0.00 0.00
3:53 pm 15:53 Cloudy 45 7.2 37 2.8 74 74 WNW 8 13 29.96 1014 10 16 0.00 0.00
4:42 pm 16:42 Cloudy 43 6 37 3 81 81 WNW 8 13 29.97 1015 10 16 0.00 0.00
4:53 pm 16:53 Cloudy 43 6.1 37 2.8 80 80 NW 13 20 29.96 1015 10 16 0.00 0.00
5:53 pm 17:53 Cloudy with Light Rain 41 5 38 3.3 89 89 NW 10 17 29.99 1016 10 16 0.00 0.03
6:53 pm 18:53 Cloudy with Light Rain 39 3.9 37 2.8 93 93 WNW 9 15 30.02 1017 10 16 0.00 0.03
7:21 pm 19:21 Cloudy with Light Rain 38 3.3 37 2.8 97 97 WNW 10 17 30.09 1019 10 16 0.02 0.51
7:53 pm 19:53 Cloudy with Light Rain 37 2.8 36 2.2 96 96 NW 9 15 30.05 1018 8 13 0.02 0.51
8:51 pm 20:51 Cloudy with Light Rain 37 3 36 2 93 93 NW 6 9 30.12 1020 9 14 0.02 0.51
8:53 pm 20:53 Cloudy with Light Rain 37 2.8 35 1.7 93 93 NW 6 9 30.06 1018 9 14 0.02 0.51
9:53 pm 21:53 Cloudy with Light Rain 37 2.8 35 1.7 93 93 NNW 5 7 30.07 1018 8 13 0.03 0.76
10:53 pm 22:53 Cloudy with Light Rain 36 2.2 34 1.1 93 93 NNW 5 7 30.08 1019 9 14 0.02 0.51
11:00 pm 23:00 Cloudy with Light Rain 36 2 36 2 100 100 NW 5 7 30.12 1020 9 14 0.00 0.00
11:19 pm 23:19 Cloudy with Light Snow 35 1.7 34 1.1 96 96 NW 5 7 30.12 1020 7 11 0.01 0.25
11:36 pm 23:36 Cloudy with Light Snow 34 1 34 1 100 100 NNW 5 7 30.15 1021 2 3 0.00 0.00
11:43 pm 23:43 Cloudy with Light Snow 33 0.6 32 0 96 96 NNW 6 9 30.18 1022 2 2 0.04 1.02
11:53 pm 23:53 Cloudy with Light Snow 33 0.6 32 0 96 96 N 6 9 30.10 1019 2 2 0.06 1.52

Powered by AerisWeather